Regional Weather Roundup
Issued by NWS

Home | Current Version | Previous Version | Text Only | Print | Product List | Glossary On
Versions: 1 2 3 4 5 6 7 8 9 10 11 12 13 14 15 16 17 18 19 20 21 22 23 24 25 26 27 28 29 30 31 32 33 34 35 36 37 38 39 40 41 42 43 44 45 46 47 48 49 50
000
ASUS43 KTOP 220208
RWRKS

WEATHER ROUNDUP FOR KANSAS
NATIONAL WEATHER SERVICE GOODLAND KS
800 PM CST WED FEB 21 2018

NOTE:  "FAIR" INDICATES FEW OR NO CLOUDS BELOW 12,000 FEET WITH NO
SIGNIFICANT WEATHER AND/OR OBSTRUCTIONS TO VISIBILITY.

KSZ001>006-013>018-027>032-041>047-220300-
NORTHWEST KANSAS

CITY           SKY/WX    TMP DP  RH WIND       PRES   REMARKS
GOODLAND       CLOUDY    23   8  52 SE12      30.27R WCI  12
HAYS           CLOUDY    26   4  38 E12       30.40R WCI  16
HILL CITY      CLOUDY    27   2  34 E9        30.39F
RUSSELL        CLOUDY    28   7  41 NE9       30.40S
$$

KSZ061>065-074>080-084>089-220300-
SOUTHWEST KANSAS

CITY           SKY/WX    TMP DP  RH WIND       PRES   REMARKS
DODGE CITY     CLOUDY    25   3  38 NE9       30.34S
ELKHART        CLOUDY    26  17  67 E6        30.26F
GARDEN CITY    CLOUDY    23   0  36 E10       30.32S WCI  12
GREAT BEND     CLOUDY    26   9  48 NE10      30.40S WCI  16
LIBERAL        CLOUDY    24   7  48 E9        30.32S
PRATT          CLOUDY    24  11  58 E13       30.39S WCI  12
$$

KSZ066>073-081>083-090>101-220300-
SOUTHEAST KANSAS

CITY           SKY/WX    TMP DP  RH WIND       PRES   REMARKS
CHANUTE        CLOUDY    28  25  88 MISG      30.43F
COFFEYVILLE    CLOUDY    29  26  89 NE13      30.41F WCI  19
HUTCHINSON     FRZ RAIN  25  19  78 NE8       30.42R
MEDICINE LODGE   N/A     22  20  92 NE10      30.39S WCI  11
NEWTON         FLURRIES  22  19  89 NE12      30.41F WCI  10
PARSONS        CLOUDY    28  26  92 NE9       30.42F
WICHITA INTL   CLOUDY    25  22  88 NE13      30.41F WCI  14
WICHITA JABRA  CLOUDY    23  22  96 NE13      30.40F WCI  11
WICHITA MCCONL FRZ RAIN  24  21  87 NE10      30.40  WCI  14
WINFIELD       CLOUDY    26  26 100 NE13      30.40F FOG     WCI  15
$$

KSZ007>012-019>026-033>040-048>060-102>105-220300-
NORTHEAST KANSAS

CITY           SKY/WX    TMP DP  RH WIND       PRES   REMARKS
CONCORDIA      CLOUDY    26  13  57 E10       30.45F WCI  16
EMPORIA        CLOUDY    24  21  88 NE7       30.44F
LAWRENCE       CLOUDY    27  23  85 NE10      30.50S WCI  17
MANHATTAN      CLOUDY    28  17  63 NE12      30.48S WCI  18
MARYSVILLE     CLOUDY    27  19  74 E9        30.49F
OLATHE IND     CLOUDY    26  22  84 NE12      30.48S WCI  16
OLATHE EXE     CLOUDY    25  22  88 NE12      30.47F WCI  14
SALINA         CLOUDY    28  15  58 NE12      30.45F WCI  18
TOPEKA BILLARD CLOUDY    28  23  81 NE10      30.49F WCI  19
TOPEKA FORBES  CLOUDY    27  22  81 NE12      30.47F WCI  17
$$




USA.gov is the U.S. government's official web portal to all federal, state and local government web resources and services.